FAB2526 SBDN-SBBR

Flight info

Callsign FAB2526
Flight time N/A
Altitude 37000
Route GEKEM UM532 ILPAV
Aircraft E145/M-SDFGHRWY/S

Departure

Time 2026-04-30 22:04
Airport Presidente Prudente Airport (SBDN)

Arrival

Time N/A
Airport Presidente Juscelino Kubitschek International Airport (SBBR)
Time Latitude Longitude Altitude Speed Heading
2026-04-30 21:01 -22.17779 -51.41825 1486 ft 0 kts 142°
2026-04-30 21:58 -22.17780 -51.41824 1486 ft 0 kts 129°
2026-04-30 21:59 -22.17779 -51.41815 1472 ft 5 kts 65°
2026-04-30 21:59 -22.17732 -51.41862 1482 ft 12 kts 275°
2026-04-30 21:59 -22.17726 -51.41926 1482 ft 13 kts 276°
2026-04-30 22:00 -22.17702 -51.42147 1476 ft 18 kts 278°
2026-04-30 22:00 -22.17659 -51.42456 1468 ft 23 kts 278°
2026-04-30 22:00 -22.17633 -51.42642 1458 ft 27 kts 278°
2026-04-30 22:01 -22.17604 -51.42841 1448 ft 23 kts 278°
2026-04-30 22:01 -22.17580 -51.43018 1440 ft 26 kts 278°
2026-04-30 22:01 -22.17554 -51.43204 1431 ft 26 kts 278°
2026-04-30 22:01 -22.17531 -51.43363 1424 ft 11 kts 278°
2026-04-30 22:02 -22.17526 -51.43385 1423 ft 2 kts 306°
2026-04-30 22:02 -22.17494 -51.43414 1422 ft 9 kts 333°
2026-04-30 22:02 -22.17416 -51.43446 1421 ft 14 kts 340°
2026-04-30 22:02 -22.17373 -51.43440 1422 ft 3 kts 67°
2026-04-30 22:03 -22.17372 -51.43422 1423 ft 2 kts 92°
2026-04-30 22:03 -22.17376 -51.43375 1426 ft 17 kts 99°
2026-04-30 22:03 -22.17426 -51.43019 1442 ft 86 kts 98°
2026-04-30 22:03 -22.17551 -51.42126 1468 ft 151 kts 98°
2026-04-30 22:04 -22.17733 -51.40913 1988 ft 172 kts 100°
2026-04-30 22:04 -22.17878 -51.39612 2833 ft 178 kts 85°
2026-04-30 22:04 -22.15990 -51.38007 4322 ft 201 kts 353°
2026-04-30 22:05 -22.14628 -51.38502 5155 ft 216 kts 348°
2026-04-30 22:05 -22.13095 -51.38267 5737 ft 238 kts 31°
2026-04-30 22:05 -22.11800 -51.37054 6269 ft 256 kts 46°
2026-04-30 22:05 -22.10590 -51.35565 6804 ft 271 kts 51°
2026-04-30 22:06 -22.09416 -51.33936 7483 ft 278 kts 47°
2026-04-30 22:06 -22.06004 -51.31972 8981 ft 287 kts 25°
2026-04-30 22:06 -22.04171 -51.30995 9741 ft 293 kts 28°
2026-04-30 22:07 -22.02398 -51.29935 10458 ft 297 kts 29°
2026-04-30 22:07 -22.00548 -51.28807 10881 ft 314 kts 29°
2026-04-30 22:07 -21.98608 -51.27628 11441 ft 323 kts 29°
2026-04-30 22:07 -21.96632 -51.26456 12190 ft 326 kts 28°
2026-04-30 22:08 -21.94629 -51.25277 12922 ft 329 kts 28°
2026-04-30 22:08 -21.92602 -51.24091 13664 ft 332 kts 28°
2026-04-30 22:08 -21.90565 -51.22893 14299 ft 336 kts 28°
2026-04-30 22:08 -21.88495 -51.21679 14908 ft 340 kts 27°
2026-04-30 22:09 -21.86405 -51.20455 15506 ft 344 kts 27°
2026-04-30 22:09 -21.84288 -51.19213 16100 ft 348 kts 27°
2026-04-30 22:09 -21.82113 -51.18043 16679 ft 350 kts 16°
2026-04-30 22:09 -21.79743 -51.17797 17246 ft 349 kts 350°
2026-04-30 22:10 -21.77380 -51.18391 17840 ft 350 kts 343°
2026-04-30 22:10 -21.74944 -51.18568 18375 ft 358 kts
2026-04-30 22:10 -21.72636 -51.17527 18848 ft 367 kts 34°
2026-04-30 22:10 -21.70909 -51.15478 19297 ft 377 kts 59°
2026-04-30 22:11 -21.70326 -51.09924 20204 ft 391 kts 107°
2026-04-30 22:11 -21.71601 -51.07343 20642 ft 394 kts 131°
2026-04-30 22:11 -21.73713 -51.05487 21081 ft 394 kts 155°
2026-04-30 22:12 -21.76314 -51.04655 21504 ft 392 kts 178°
2026-04-30 22:12 -21.78989 -51.04978 21929 ft 387 kts 202°
2026-04-30 22:12 -21.81328 -51.06345 22366 ft 383 kts 219°
2026-04-30 22:12 -21.83456 -51.08087 22814 ft 385 kts 221°
2026-04-30 22:13 -21.85540 -51.09909 23258 ft 387 kts 223°
2026-04-30 22:13 -21.87620 -51.11768 23673 ft 389 kts 223°
2026-04-30 22:13 -21.89704 -51.13639 24030 ft 391 kts 223°
2026-04-30 22:13 -21.91800 -51.15528 24409 ft 392 kts 223°
2026-04-30 22:14 -21.93869 -51.17402 24774 ft 394 kts 223°
2026-04-30 22:14 -21.95965 -51.19310 25122 ft 395 kts 223°
2026-04-30 22:14 -21.98066 -51.21234 25468 ft 397 kts 224°
2026-04-30 22:14 -22.00174 -51.23173 25809 ft 399 kts 224°
2026-04-30 22:15 -22.02248 -51.25164 26141 ft 398 kts 229°
2026-04-30 22:15 -22.04007 -51.27458 26461 ft 397 kts 237°
2026-04-30 22:15 -22.05460 -51.29986 26761 ft 395 kts 249°
2026-04-30 22:15 -22.06141 -51.32821 27058 ft 392 kts 268°
2026-04-30 22:16 -22.05875 -51.35733 27339 ft 392 kts 287°
2026-04-30 22:16 -22.04697 -51.38378 27612 ft 395 kts 305°
2026-04-30 22:17 -21.97352 -51.42081 28367 ft 419 kts
2026-04-30 22:17 -21.94512 -51.41425 28603 ft 429 kts 18°
2026-04-30 22:17 -21.89817 -51.37374 29058 ft 448 kts 54°
2026-04-30 22:18 -21.88453 -51.34337 29297 ft 454 kts 70°
2026-04-30 22:18 -21.86298 -51.27931 29738 ft 456 kts 61°
2026-04-30 22:19 -21.82342 -51.22717 30132 ft 450 kts 34°
2026-04-30 22:19 -21.79724 -51.20913 30332 ft 445 kts 22°
2026-04-30 22:19 -21.73974 -51.18518 30721 ft 445 kts 18°
2026-04-30 22:20 -21.71114 -51.17225 30929 ft 447 kts 20°
2026-04-30 22:20 -21.65437 -51.14413 31307 ft 450 kts 22°
2026-04-30 22:20 -21.62654 -51.12863 31488 ft 452 kts 24°
2026-04-30 22:21 -21.59901 -51.11295 31688 ft 453 kts 24°
2026-04-30 22:21 -21.57116 -51.09728 31956 ft 451 kts 24°
2026-04-30 22:21 -21.54337 -51.08171 32200 ft 450 kts 24°
2026-04-30 22:21 -21.51578 -51.06590 32442 ft 450 kts 24°
2026-04-30 22:22 -21.48811 -51.05012 32660 ft 449 kts 24°
2026-04-30 22:22 -21.46049 -51.03440 32895 ft 449 kts 24°
2026-04-30 22:22 -21.43304 -51.01857 33130 ft 448 kts 24°
2026-04-30 22:22 -21.40555 -51.00263 33347 ft 447 kts 24°
2026-04-30 22:23 -21.37815 -50.98686 33560 ft 447 kts 24°
2026-04-30 22:23 -21.35076 -50.97126 33780 ft 446 kts 24°
2026-04-30 22:23 -21.32325 -50.95566 33994 ft 445 kts 24°
2026-04-30 22:23 -21.29586 -50.94010 34171 ft 445 kts 24°
2026-04-30 22:24 -21.26889 -50.92475 34337 ft 444 kts 24°
2026-04-30 22:24 -21.24157 -50.90918 34498 ft 444 kts 24°
2026-04-30 22:24 -21.21432 -50.89363 34654 ft 443 kts 24°
2026-04-30 22:24 -21.18708 -50.87808 34808 ft 443 kts 24°
2026-04-30 22:25 -21.15985 -50.86255 34958 ft 443 kts 24°
2026-04-30 22:25 -21.13265 -50.84707 35109 ft 443 kts 24°
2026-04-30 22:25 -21.10552 -50.83166 35264 ft 442 kts 24°
2026-04-30 22:25 -21.07834 -50.81623 35415 ft 442 kts 24°
2026-04-30 22:26 -21.02399 -50.78540 35680 ft 441 kts 24°
2026-04-30 22:26 -20.99691 -50.77005 35803 ft 441 kts 24°
2026-04-30 22:26 -20.97008 -50.75485 35933 ft 441 kts 24°
2026-04-30 22:27 -20.94299 -50.73951 36070 ft 440 kts 24°
2026-04-30 22:27 -20.91588 -50.72416 36183 ft 440 kts 24°
2026-04-30 22:27 -20.86166 -50.69347 36419 ft 440 kts 24°
2026-04-30 22:28 -20.80757 -50.66289 36640 ft 439 kts 24°
2026-04-30 22:28 -20.78057 -50.64761 36750 ft 439 kts 24°
2026-04-30 22:29 -20.69930 -50.60271 36963 ft 441 kts 23°
2026-04-30 22:29 -20.67193 -50.58765 36982 ft 443 kts 23°
2026-04-30 22:31 -20.47779 -50.48141 36997 ft 452 kts 23°
2026-04-30 22:32 -20.33751 -50.40486 36995 ft 454 kts 23°
2026-04-30 22:33 -20.19641 -50.32802 36997 ft 457 kts 23°
2026-04-30 22:35 -20.05483 -50.25122 36992 ft 459 kts 23°
2026-04-30 22:36 -19.91227 -50.17418 36995 ft 460 kts 23°
2026-04-30 22:37 -19.79787 -50.11251 36992 ft 462 kts 23°
2026-04-30 22:38 -19.68340 -50.05093 36998 ft 463 kts 23°
2026-04-30 22:39 -19.59701 -50.00453 36995 ft 464 kts 24°
2026-04-30 22:40 -19.42408 -49.91180 36997 ft 466 kts 24°
2026-04-30 22:41 -19.27932 -49.83415 36995 ft 467 kts 24°
2026-04-30 22:43 -19.10654 -49.73903 37002 ft 468 kts 24°
2026-04-30 22:44 -18.99082 -49.67542 36998 ft 469 kts 24°
2026-04-30 22:45 -18.81683 -49.58000 37000 ft 471 kts 24°
2026-04-30 22:47 -18.64215 -49.48494 36994 ft 472 kts 24°
2026-04-30 22:48 -18.52540 -49.42154 37001 ft 472 kts 24°
2026-04-30 22:49 -18.35948 -49.33161 37000 ft 474 kts 24°
2026-04-30 22:51 -18.18378 -49.23663 37002 ft 474 kts 25°
2026-04-30 22:52 -18.09561 -49.18911 37013 ft 475 kts 25°
2026-04-30 22:53 -17.97762 -49.12630 37014 ft 475 kts 24°
2026-04-30 22:53 -17.88911 -49.07929 37011 ft 475 kts 24°
2026-04-30 22:55 -17.74256 -48.99953 37011 ft 477 kts 32°
2026-04-30 22:56 -17.64106 -48.90894 37015 ft 480 kts 41°
2026-04-30 22:57 -17.51850 -48.79045 37017 ft 480 kts 40°
2026-04-30 22:58 -17.41979 -48.69611 36880 ft 481 kts 40°
2026-04-30 22:59 -17.34580 -48.62546 34233 ft 484 kts 40°
2026-04-30 22:59 -17.27143 -48.55451 32032 ft 481 kts 41°